TimeCDT,TemperatureF,Dew PointF,Humidity,Sea Level PressureIn,VisibilityMPH,Wind Direction,Wind SpeedMPH,Gust SpeedMPH,PrecipitationIn,Events,Conditions,WindDirDegrees,DateUTC
12:53 AM,66.0,62.1,87,29.78,10.0,South,8.1,-,N/A,,Overcast,170,2012-10-24 05:53:00
1:53 AM,66.0,62.1,87,29.78,10.0,SSE,4.6,-,N/A,,Overcast,150,2012-10-24 06:53:00
2:32 AM,62.6,60.8,94,29.80,10.0,SSE,4.6,-,N/A,,Mostly Cloudy,150,2012-10-24 07:32:00
2:53 AM,63.0,60.1,90,29.78,10.0,SSE,4.6,-,N/A,,Scattered Clouds,160,2012-10-24 07:53:00
3:38 AM,62.6,60.8,94,29.79,10.0,Calm,Calm,-,N/A,,Mostly Cloudy,0,2012-10-24 08:38:00
3:53 AM,62.1,60.1,93,29.78,10.0,Calm,Calm,-,N/A,,Mostly Cloudy,0,2012-10-24 08:53:00
4:53 AM,62.1,61.0,96,29.78,8.0,South,4.6,-,N/A,,Overcast,170,2012-10-24 09:53:00
5:53 AM,63.0,61.0,93,29.79,10.0,SSE,3.5,-,N/A,,Overcast,150,2012-10-24 10:53:00
6:12 AM,64.4,60.8,88,29.81,10.0,SE,3.5,-,N/A,,Overcast,130,2012-10-24 11:12:00
6:53 AM,63.0,61.0,93,29.80,9.0,SSE,4.6,-,N/A,,Overcast,150,2012-10-24 11:53:00
7:13 AM,62.6,60.8,94,29.82,9.0,SSE,3.5,-,N/A,,Overcast,160,2012-10-24 12:13:00
7:53 AM,64.0,62.1,93,29.81,7.0,SSE,5.8,-,N/A,,Overcast,160,2012-10-24 12:53:00
8:53 AM,64.0,62.1,93,29.80,7.0,SE,5.8,-,N/A,,Overcast,130,2012-10-24 13:53:00
9:41 AM,66.2,62.6,88,29.81,8.0,South,4.6,-,N/A,,Mostly Cloudy,180,2012-10-24 14:41:00
9:53 AM,68.0,63.0,84,29.79,8.0,South,5.8,-,N/A,,Overcast,170,2012-10-24 14:53:00
10:53 AM,68.0,63.0,84,29.79,7.0,South,5.8,-,N/A,,Overcast,170,2012-10-24 15:53:00
11:53 AM,69.1,63.0,81,29.77,6.0,South,6.9,-,N/A,,Haze,170,2012-10-24 16:53:00
12:53 PM,69.1,63.0,81,29.75,6.0,South,4.6,-,N/A,,Haze,180,2012-10-24 17:53:00
1:53 PM,70.0,64.0,81,29.73,7.0,South,5.8,-,N/A,,Overcast,170,2012-10-24 18:53:00
2:53 PM,71.1,64.0,78,29.71,8.0,SSE,4.6,-,N/A,,Overcast,150,2012-10-24 19:53:00
3:53 PM,72.0,64.0,76,29.69,10.0,SE,5.8,-,N/A,,Overcast,140,2012-10-24 20:53:00
4:53 PM,72.0,64.0,76,29.68,10.0,SE,6.9,-,N/A,,Overcast,130,2012-10-24 21:53:00
5:02 PM,71.6,64.4,78,29.70,10.0,SE,5.8,-,N/A,,Overcast,130,2012-10-24 22:02:00
5:53 PM,71.1,64.0,78,29.67,10.0,SE,8.1,-,N/A,,Mostly Cloudy,130,2012-10-24 22:53:00
6:53 PM,71.1,64.0,78,29.68,10.0,South,9.2,-,0.00,Rain,Light Rain,170,2012-10-24 23:53:00
8:53 PM,70.0,63.0,78,29.66,10.0,South,4.6,-,N/A,,Overcast,180,2012-10-25 01:53:00
9:53 PM,66.9,64.0,90,29.67,7.0,South,3.5,-,0.36,Rain-Thunderstorm,Light Rain,180,2012-10-25 02:53:00
10:14 PM,66.2,64.4,94,29.68,1.8,Calm,Calm,-,0.10,Rain-Thunderstorm,Heavy Thunderstorms and Rain,0,2012-10-25 03:14:00
10:23 PM,66.2,64.4,94,29.68,4.0,SSE,5.8,-,0.16,Rain-Thunderstorm,Light Thunderstorms and Rain,160,2012-10-25 03:23:00
10:53 PM,64.9,64.0,97,29.64,4.0,NE,3.5,-,0.20,Rain-Thunderstorm,Light Rain,40,2012-10-25 03:53:00
11:13 PM,64.4,64.4,100,29.67,2.5,WNW,8.1,-,0.06,Rain-Thunderstorm,Thunderstorms and Rain,300,2012-10-25 04:13:00
11:16 PM,64.4,64.4,100,29.67,1.8,WNW,8.1,-,0.09,Rain-Thunderstorm,Heavy Thunderstorms and Rain,300,2012-10-25 04:16:00
11:33 PM,64.4,62.6,94,29.67,2.5,NW,3.5,-,0.23,Rain-Thunderstorm,Light Thunderstorms and Rain,320,2012-10-25 04:33:00
11:42 PM,62.6,62.6,100,29.66,4.0,NW,4.6,-,0.23,Thunderstorm,Overcast,320,2012-10-25 04:42:00
11:53 PM,63.0,62.1,97,29.65,4.0,NNW,8.1,-,0.23,Rain-Thunderstorm,Light Rain,330,2012-10-25 04:53:00